Regional Weather Roundup
Issued by NWS Cleveland, OH

Home | Current Version | Previous Version | Graphics & Text | Print | Product List | Glossary On
Versions: 1 2 3 4 5 6 7 8 9 10 11 12 13 14 15 16 17 18 19 20 21 22 23 24 25 26 27 28 29 30 31 32 33 34 35 36 37 38 39 40 41 42 43 44 45 46 47 48 49 50
000
ASUS41 KCLE 291610
RWRCLE
OHIO REGIONAL WEATHER ROUNDUP
NATIONAL WEATHER SERVICE WILMINGTON, OH
1200 PM EDT MON MAY 29 2017

NOTE: "FAIR" INDICATES FEW OR NO CLOUDS BELOW 12,000 FEET WITH NO
SIGNIFICANT WEATHER AND/OR OBSTRUCTIONS TO VISIBILITY.

OHZ001>008-015>018-024>027-034-035-043-044-291700-
   NORTHWEST OHIO

CITY           SKY/WX    TMP DP  RH WIND       PRES   REMARKS
DEFIANCE       FAIR      72  57  59 SW9G21    29.84R
FINDLAY        FAIR      77  53  43 SW12G23   29.85S
TOLEDO EXPRESS FAIR      75  54  47 SW12G20   29.82S
TOLEDO EXEC    FAIR      75  57  53 SW18      29.84S
LIMA           FAIR      76  54  46 SW20G26   29.87S
$$

OHZ009>014-019>023-028>033-038-089-291700-
   NORTHEAST OHIO

CITY           SKY/WX    TMP DP  RH WIND       PRES   REMARKS
CLE-HOPKINS    FAIR      77  52  41 W9        29.89R
CLE-LAKEFRONT  PTSUNNY   71  54  54 W6        29.86R
CUY CO. ARPT   MOSUNNY   75  50  41 W12       29.89R
LORAIN-ELYRIA  FAIR      73  51  46 SW12      29.88R
ASHTABULA      FAIR      73  50  44 W20G26    29.89R
AKRON-CANTON   FAIR      75  51  43 SW12      29.91R
WOOSTER        FAIR      74  52  46 W13       29.91R
MANSFIELD      FAIR      75  52  44 SW15      29.90R
YOUNGSTOWN     FAIR      73  51  46 W10       29.90R
$$

OHZ042-051>053-060>062-070>072-077>081-291700-
  SOUTHWEST OHIO

CITY           SKY/WX    TMP DP  RH WIND       PRES   REMARKS
CINC-COVINGTON FAIR      75  62  64 SW8       29.95R
CINC-LUNKEN    FAIR      76  64  66 W6        29.95R
HAMILTON       FAIR      77  64  64 W7        29.94S
DAYTON         FAIR      76  54  46 SW14      29.92S
WRIGHT-PAT AFB FAIR      76  58  54 SW13      29.91S
DAYTON GENERAL FAIR      75  59  57 SW10      29.92S
WILMINGTON     FAIR      74  63  68 SW12      29.94R
$$

OHZ036-037-039>041-045>050-054>059-063>069-073>076-082>088-291700-
  CENTRAL AND SOUTHEAST OHIO

CITY           SKY/WX    TMP DP  RH WIND       PRES   REMARKS
COLUMBUS       FAIR      77  53  43 W10G18    29.91R
OSU AIRPORT    FAIR      77  52  41 SW12      29.91R
BOLTON FIELD   SUNNY     75  55  50 W9G18     29.92S
RICKENBACK AFB FAIR      77  55  46 W10G22    29.92R
NEWARK         FAIR      76  54  46 S9        29.92R
MARION         FAIR      75  52  44 SW16G22   29.90R
LANCASTER      FAIR      78  62  57 SW8       29.94R
ZANESVILLE     FAIR      75  57  53 W7        29.93R
NEW PHILLY     FAIR      76  52  43 VRB6      29.92R
$$




USA.gov is the U.S. government's official web portal to all federal, state and local government web resources and services.